This is the latest recevied weather packets stored in our database for station/object N1HQ. If no packets are shown the sender has not sent any weather packets the latest 10 day(s).
| Time | Temp. | Humidity | Pressure | Rain* | Wind** | Luminosity | Snow |
|---|---|---|---|---|---|---|---|
| 1787837983 | 29.44° C | 87% | 1013.4 hPa | 0 mm | - | - | - |
| 1787837717 | 30° C | 87% | 1013.3 hPa | 0 mm | - | - | - |
| 1787837468 | 30° C | 86% | 1013.4 hPa | 0 mm | - | - | - |
| 1787837183 | 30° C | 86% | 1013.5 hPa | 0 mm | - | - | - |
| 1787836903 | 30° C | 88% | 1013.5 hPa | 0 mm | - | - | - |
| 1787836650 | 29.44° C | 87% | 1013.4 hPa | 0 mm | - | - | - |
| 1787836398 | 29.44° C | 87% | 1013.2 hPa | 0 mm | - | - | - |
| 1787836158 | 30° C | 88% | 1013.1 hPa | 0 mm | - | - | - |
| 1787835867 | 29.44° C | 87% | 1012.8 hPa | 0 mm | - | - | - |
| 1787835574 | 29.44° C | 89% | 1012.7 hPa | 0 mm | - | - | - |
| 1787835318 | 29.44° C | 89% | 1012.8 hPa | 0 mm | - | - | - |
| 1787835038 | 28.89° C | 89% | 1012.7 hPa | 0 mm | - | - | - |
| 1787834758 | 28.89° C | 90% | 1012.6 hPa | 0 mm | - | - | - |
| 1787834498 | 28.33° C | 93% | 1012.5 hPa | 0 mm | - | - | - |
| 1787834243 | 28.33° C | 94% | 1012.5 hPa | 0 mm | - | - | - |
| 1787833953 | 27.22° C | 96% | 1012.5 hPa | 0 mm | - | - | - |
| 1787833713 | 26.67° C | 97% | 1012.4 hPa | 0 mm | - | - | - |
| 1787833451 | 26.67° C | 98% | 1012.4 hPa | 0 mm | - | - | - |
| 1787833188 | 26.11° C | 99% | 1012.3 hPa | 0 mm | - | - | - |
| 1787832893 | 25.56° C | 99% | 1012.3 hPa | 0 mm | - | - | - |
| 1787832643 | 25.56° C | 99% | 1012.3 hPa | 0 mm | - | - | - |
| 1787832383 | 25° C | 99% | 1012.4 hPa | 0 mm | - | - | - |
| 1787832083 | 25° C | 99% | 1012.4 hPa | 0 mm | - | - | - |
| 1787831798 | 24.44° C | 99% | 1012.4 hPa | 0 mm | - | - | - |
| 1787831498 | 24.44° C | 99% | 1012.3 hPa | 0 mm | - | - | - |
* Rain latest hour (hover to see other rain measurements)
** Current wind speed in m/s (hover to see current wind gust speed)